When you browse on this site, cookies collect data to enhance your experience and personalize the content and advertising you see.
Visit our Privacy Policy to learn more. By continuing to use the site, you agree to this use of cookies and data.
  • In Österreich
  • Länderverzeichnis
  • Für 7 Tage
  • Wassertemperatur
  • Wetterkarte
  • News
  • Widgets
  • user-avatar
    Anmelden

    Stündliche Wetter Kannyn

    Heute, 25 Mai, Montag

    Zeit Temperatur Niederschläge Wind Luftdruck Luftfeuchtigkeit
    00:00 +16°C° 0 mm 3 m/S 748 mmHg 89%
    01:00 +16°C° 0 mm 3 m/S 748 mmHg 89%
    02:00 +16°C° 0 mm 3 m/S 748 mmHg 89%
    03:00 +14°C° 0 mm 3 m/S 748 mmHg 88%
    04:00 +14°C° 0 mm 3 m/S 748 mmHg 88%
    05:00 +14°C° 0 mm 3 m/S 749 mmHg 88%
    06:00 +15°C° 0 mm 2 m/S 749 mmHg 88%
    07:00 +18°C° 0 mm 2 m/S 749 mmHg 77%
    08:00 +21°C° 0 mm 1 m/S 749 mmHg 67%
    09:00 +22°C° 0 mm 0 m/S 749 mmHg 53%
    10:00 +25°C° 0 mm 1 m/S 749 mmHg 49%
    11:00 +26°C° 0 mm 1 m/S 749 mmHg 46%
    12:00 +27°C° 0 mm 2 m/S 749 mmHg 42%
    13:00 +26°C° 0 mm 2 m/S 748 mmHg 44%
    14:00 +26°C° 0 mm 2 m/S 748 mmHg 46%
    15:00 +25°C° 0 mm 2 m/S 748 mmHg 48%
    16:00 +25°C° 0 mm 3 m/S 748 mmHg 52%
    17:00 +24°C° 0 mm 3 m/S 748 mmHg 56%
    18:00 +24°C° 0 mm 3 m/S 748 mmHg 60%
    19:00 +21°C° 0 mm 3 m/S 748 mmHg 66%
    20:00 +19°C° 0 mm 3 m/S 748 mmHg 72%
    21:00 +18°C° 0 mm 2 m/S 748 mmHg 77%
    22:00 +17°C° 0 mm 2 m/S 748 mmHg 80%
    23:00 +17°C° 0 mm 2 m/S 748 mmHg 83%

    Morgen, 26 Mai, Dienstag

    Zeit Temperatur Niederschläge Wind Luftdruck Luftfeuchtigkeit
    00:00 +16°C° 0 mm 3 m/S 748 mmHg 85%
    01:00 +16°C° 0 mm 3 m/S 748 mmHg 85%
    02:00 +16°C° 0 mm 3 m/S 748 mmHg 86%
    03:00 +16°C° 0 mm 3 m/S 747 mmHg 86%
    04:00 +16°C° 0 mm 2 m/S 747 mmHg 85%
    05:00 +16°C° 0 mm 2 m/S 747 mmHg 84%
    06:00 +16°C° 0 mm 2 m/S 747 mmHg 83%
    07:00 +19°C° 0 mm 2 m/S 747 mmHg 71%
    08:00 +22°C° 0 mm 1 m/S 748 mmHg 60%
    09:00 +25°C° 0 mm 1 m/S 748 mmHg 48%
    10:00 +25°C° 0 mm 1 m/S 747 mmHg 48%
    11:00 +25°C° 0 mm 2 m/S 747 mmHg 47%
    12:00 +26°C° 0 mm 2 m/S 747 mmHg 47%
    13:00 +26°C° 0.1 mm 2 m/S 746 mmHg 49%
    14:00 +26°C° 0.1 mm 2 m/S 746 mmHg 52%
    15:00 +26°C° 0.1 mm 2 m/S 745 mmHg 54%
    16:00 +24°C° 0.4 mm 3 m/S 746 mmHg 66%
    17:00 +21°C° 0.4 mm 3 m/S 746 mmHg 77%
    18:00 +19°C° 0.4 mm 3 m/S 746 mmHg 89%
    19:00 +18°C° 0.1 mm 2 m/S 746 mmHg 89%
    20:00 +17°C° 0.1 mm 2 m/S 746 mmHg 90%
    21:00 +16°C° 0.1 mm 1 m/S 746 mmHg 91%
    22:00 +16°C° 0.2 mm 1 m/S 746 mmHg 91%
    23:00 +16°C° 0.2 mm 2 m/S 746 mmHg 92%

    übermorgen, 27 Mai, Mittwoch

    Zeit Temperatur Niederschläge Wind Luftdruck Luftfeuchtigkeit
    00:00 +16°C° 0.2 mm 2 m/S 746 mmHg 92%
    01:00 +16°C° 0 mm 3 m/S 746 mmHg 92%
    02:00 +16°C° 0 mm 3 m/S 745 mmHg 91%
    03:00 +14°C° 0 mm 4 m/S 745 mmHg 91%
    04:00 +14°C° 0 mm 4 m/S 745 mmHg 90%
    05:00 +14°C° 0 mm 3 m/S 746 mmHg 90%
    06:00 +13°C° 0 mm 3 m/S 746 mmHg 89%
    07:00 +16°C° 0 mm 3 m/S 746 mmHg 78%
    08:00 +18°C° 0 mm 3 m/S 747 mmHg 67%
    09:00 +20°C° 0 mm 2 m/S 747 mmHg 55%
    10:00 +23°C° 0 mm 2 m/S 747 mmHg 47%
    11:00 +25°C° 0 mm 2 m/S 747 mmHg 39%
    12:00 +26°C° 0 mm 2 m/S 747 mmHg 30%
    13:00 +26°C° 0 mm 2 m/S 747 mmHg 31%
    14:00 +26°C° 0 mm 2 m/S 746 mmHg 32%
    15:00 +26°C° 0 mm 2 m/S 746 mmHg 33%
    16:00 +25°C° 0 mm 2 m/S 746 mmHg 39%
    17:00 +24°C° 0 mm 1 m/S 746 mmHg 45%
    18:00 +23°C° 0 mm 1 m/S 746 mmHg 51%
    19:00 +20°C° 0 mm 2 m/S 747 mmHg 58%
    20:00 +19°C° 0 mm 2 m/S 747 mmHg 64%
    21:00 +17°C° 0 mm 3 m/S 747 mmHg 71%
    22:00 +16°C° 0 mm 3 m/S 747 mmHg 72%
    23:00 +16°C° 0 mm 3 m/S 747 mmHg 73%

    28 Mai, Donnerstag

    Zeit Temperatur Niederschläge Wind Luftdruck Luftfeuchtigkeit
    00:00 +14°C° 0 mm 3 m/S 748 mmHg 75%
    01:00 +15°C° 0 mm 2 m/S 747 mmHg 74%
    02:00 +15°C° 0 mm 2 m/S 747 mmHg 74%
    03:00 +14°C° 0 mm 2 m/S 747 mmHg 74%
    04:00 +15°C° 0 mm 2 m/S 747 mmHg 74%
    05:00 +15°C° 0 mm 2 m/S 747 mmHg 73%
    06:00 +15°C° 0 mm 2 m/S 747 mmHg 73%
    07:00 +19°C° 0 mm 1 m/S 748 mmHg 62%
    08:00 +22°C° 0 mm 1 m/S 748 mmHg 52%
    09:00 +23°C° 0 mm 0 m/S 748 mmHg 42%
    10:00 +26°C° 0 mm 1 m/S 748 mmHg 40%
    11:00 +26°C° 0 mm 2 m/S 748 mmHg 37%
    12:00 +27°C° 0 mm 3 m/S 747 mmHg 35%
    13:00 +26°C° 0 mm 3 m/S 747 mmHg 38%
    14:00 +26°C° 0 mm 3 m/S 747 mmHg 40%
    15:00 +25°C° 0 mm 3 m/S 747 mmHg 43%
    16:00 +24°C° 0.3 mm 2 m/S 747 mmHg 56%
    17:00 +21°C° 0.3 mm 2 m/S 747 mmHg 68%
    18:00 +20°C° 0.3 mm 1 m/S 747 mmHg 80%
    19:00 +19°C° 0.2 mm 1 m/S 747 mmHg 83%
    20:00 +18°C° 0.2 mm 1 m/S 748 mmHg 85%
    21:00 +15°C° 0.2 mm 1 m/S 748 mmHg 88%
    22:00 +15°C° 0.1 mm 1 m/S 748 mmHg 88%
    23:00 +15°C° 0.1 mm 1 m/S 748 mmHg 89%

    29 Mai, Freitag

    Zeit Temperatur Niederschläge Wind Luftdruck Luftfeuchtigkeit
    00:00 +15°C° 0.1 mm 1 m/S 748 mmHg 90%
    01:00 +15°C° 0 mm 1 m/S 749 mmHg 90%
    02:00 +15°C° 0 mm 2 m/S 749 mmHg 90%
    03:00 +14°C° 0 mm 2 m/S 749 mmHg 91%
    04:00 +15°C° 0 mm 2 m/S 749 mmHg 90%
    05:00 +15°C° 0 mm 2 m/S 749 mmHg 90%
    06:00 +15°C° 0 mm 1 m/S 750 mmHg 90%
    07:00 +18°C° 0 mm 1 m/S 750 mmHg 80%
    08:00 +21°C° 0 mm 1 m/S 750 mmHg 70%
    09:00 +24°C° 0 mm 1 m/S 751 mmHg 61%
    10:00 +24°C° 0 mm 1 m/S 751 mmHg 57%
    11:00 +25°C° 0 mm 2 m/S 751 mmHg 53%
    12:00 +26°C° 0 mm 2 m/S 751 mmHg 50%
    13:00 +25°C° 0 mm 2 m/S 751 mmHg 51%
    14:00 +25°C° 0 mm 2 m/S 751 mmHg 52%
    15:00 +25°C° 0 mm 1 m/S 751 mmHg 53%
    16:00 +24°C° 0 mm 1 m/S 750 mmHg 56%
    17:00 +24°C° 0 mm 1 m/S 750 mmHg 59%
    18:00 +23°C° 0 mm 1 m/S 750 mmHg 62%
    19:00 +21°C° 0 mm 1 m/S 751 mmHg 68%
    20:00 +19°C° 0 mm 1 m/S 751 mmHg 73%
    21:00 +18°C° 0 mm 1 m/S 752 mmHg 79%
    22:00 +18°C° 0 mm 1 m/S 752 mmHg 79%
    23:00 +18°C° 0 mm 1 m/S 752 mmHg 78%

    30 Mai, Samstag

    Zeit Temperatur Niederschläge Wind Luftdruck Luftfeuchtigkeit
    00:00 +18°C° 0 mm 1 m/S 752 mmHg 78%
    01:00 +18°C° 0 mm 1 m/S 752 mmHg 79%
    02:00 +18°C° 0 mm 1 m/S 752 mmHg 79%
    03:00 +17°C° 0 mm 2 m/S 752 mmHg 80%
    04:00 +18°C° 0 mm 1 m/S 752 mmHg 80%
    05:00 +18°C° 0 mm 1 m/S 752 mmHg 80%
    06:00 +18°C° 0 mm 1 m/S 752 mmHg 80%
    07:00 +21°C° 0 mm 1 m/S 752 mmHg 70%
    08:00 +24°C° 0 mm 1 m/S 752 mmHg 61%
    09:00 +27°C° 0 mm 1 m/S 752 mmHg 51%
    10:00 +28°C° 0 mm 2 m/S 752 mmHg 46%
    11:00 +29°C° 0 mm 2 m/S 752 mmHg 42%
    12:00 +30°C° 0 mm 3 m/S 752 mmHg 37%
    13:00 +30°C° 0 mm 3 m/S 751 mmHg 38%
    14:00 +30°C° 0 mm 3 m/S 751 mmHg 39%
    15:00 +29°C° 0 mm 3 m/S 751 mmHg 40%
    16:00 +28°C° 0 mm 3 m/S 751 mmHg 48%
    17:00 +27°C° 0 mm 3 m/S 750 mmHg 57%
    18:00 +26°C° 0 mm 3 m/S 750 mmHg 65%
    19:00 +24°C° 0 mm 3 m/S 751 mmHg 70%
    20:00 +23°C° 0 mm 2 m/S 751 mmHg 76%
    21:00 +20°C° 0 mm 2 m/S 751 mmHg 82%
    22:00 +20°C° 0 mm 2 m/S 751 mmHg 83%
    23:00 +19°C° 0 mm 2 m/S 751 mmHg 84%
    Mehr zeigen